Weather reports worldwide

Advertisment
Brindisi, Italy (16320): temperature & dewpoint: 05.12.2019 09:00:00 - 11.12.2019 09:00:00 (CET)Brindisi, Italy (16320): wind speed: 05.12.2019 09:00:00 - 11.12.2019 09:00:00 (CET)Brindisi, Italy (16320): wind direction: 05.12.2019 09:00:00 - 11.12.2019 09:00:00 (CET)Brindisi, Italy (16320): reduced air pressure: 05.12.2019 09:00:00 - 11.12.2019 09:00:00 (CET)Brindisi, Italy (16320): visibility: 05.12.2019 09:00:00 - 11.12.2019 09:00:00 (CET)Brindisi, Italy (16320): precipitation: 05.12.2019 09:00:00 - 11.12.2019 09:00:00 (CET)
Date & Time tt [°C] td [°C] ff [km/h] ff [kn] dd ppp [hPa] vv [km] rr [mm]
11.12.2019 09:00:00 13,0 10,0 39 21 NNE - 7 -
11.12.2019 08:00:00 13,0 10,0 41 22 NNE - 5 -
11.12.2019 07:00:00 12,8 9,8 39 21 NNE 1007,7 10 -
11.12.2019 06:00:00 13,0 9,0 39 21 NNE - 10 -
11.12.2019 05:00:00 13,0 10,0 41 22 NNE - 10 -
11.12.2019 04:00:00 13,1 9,4 41 22 NE 1007,2 - 0,0
11.12.2019 03:00:00 13,0 9,0 42 23 NNE - 10 -
11.12.2019 02:00:00 - - - - - - - -
11.12.2019 01:00:00 13,4 9,5 39 21 NE 1007,9 10 -
11.12.2019 00:00:00 14,0 9,0 37 20 NNE - 10 -
10.12.2019 23:00:00 14,0 9,0 39 21 NNE - 10 -
10.12.2019 22:00:00 14,4 8,6 37 20 NNE 1007,8 10 0,0
10.12.2019 21:00:00 15,0 9,0 35 19 NNE - 10 -
10.12.2019 20:00:00 15,0 10,0 26 14 NE - 10 -
10.12.2019 19:00:00 14,5 10,4 24 13 NE 1007,9 10 -
10.12.2019 18:00:00 15,0 11,0 24 13 N - 10 -
10.12.2019 17:00:00 14,0 10,0 15 8 N - 10 -
10.12.2019 16:00:00 14,2 11,2 18 10 NNW 1007,2 10 0,0
10.12.2019 15:00:00 13,0 11,0 15 8 NNW - 9 -
10.12.2019 14:00:00 15,0 10,0 26 14 WNW - 10 -
10.12.2019 13:00:00 14,8 11,0 15 8 NW 1007,1 10 -
10.12.2019 12:00:00 15,0 11,0 18 10 NW - 10 -
10.12.2019 11:00:00 14,0 10,0 13 7 WNW - 10 -
10.12.2019 10:00:00 13,3 8,7 9 5 WNW 1008,0 10 0,0
10.12.2019 09:00:00 11,0 7,0 9 5 WSW - 10 -
10.12.2019 08:00:00 8,0 6,0 13 7 SW - 10 -
10.12.2019 07:00:00 9,3 6,1 11 6 W 1007,0 10 -
10.12.2019 06:00:00 10,0 8,0 13 7 WSW - 10 -
10.12.2019 05:00:00 11,0 9,0 11 6 SW - 10 -
10.12.2019 04:00:00 11,7 8,9 5 3 WSW 1006,7 10 0,0
10.12.2019 03:00:00 12,0 9,0 13 7 SW - 10 -
10.12.2019 02:00:00 12,0 10,0 15 8 SW - 10 -
10.12.2019 01:00:00 13,1 9,6 11 6 SSW 1006,9 10 -
10.12.2019 00:00:00 13,0 10,0 11 6 S - 10 -
09.12.2019 23:00:00 14,0 11,0 15 8 S - 10 -
09.12.2019 22:00:00 14,2 11,5 15 8 SW 1008,3 10 0,0
09.12.2019 21:00:00 14,0 11,0 15 8 SSW - 10 -
09.12.2019 20:00:00 14,0 11,0 13 7 S - 10 -
09.12.2019 19:00:00 13,8 11,4 15 8 SSW 1009,2 10 -
09.12.2019 18:00:00 14,0 12,0 11 6 S - 10 -
09.12.2019 17:00:00 15,0 12,0 15 8 S - 10 -
09.12.2019 16:00:00 14,8 11,3 5 3 S 1009,8 10 0,0
09.12.2019 15:00:00 16,0 11,0 13 7 S - 10 -
09.12.2019 14:00:00 17,0 11,0 16 9 S - 10 -
09.12.2019 13:00:00 16,4 12,2 13 7 S 1011,6 10 -
09.12.2019 12:00:00 16,0 12,0 15 8 S - 10 -
09.12.2019 11:00:00 16,0 13,0 13 7 S - 10 -
09.12.2019 10:00:00 14,9 12,2 15 8 S 1014,3 10 0,0
09.12.2019 09:00:00 13,0 11,0 13 7 SSE - 10 -
09.12.2019 08:00:00 11,0 10,0 11 6 SSE - 8 -
09.12.2019 07:00:00 9,9 9,3 8 4 SSE 1015,0 10 -
09.12.2019 06:00:00 10,0 9,0 11 6 S - 10 -
09.12.2019 05:00:00 10,0 9,0 9 5 S - 10 -
09.12.2019 04:00:00 10,7 9,2 11 6 SSW 1016,3 10 0,0
09.12.2019 03:00:00 10,0 9,0 5 3 S - 10 -
09.12.2019 02:00:00 10,0 10,0 9 5 SSW - 10 -
09.12.2019 01:00:00 9,7 8,8 13 7 SW 1017,9 10 -
09.12.2019 00:00:00 9,0 8,0 8 4 SSW - 10 -
08.12.2019 23:00:00 10,0 9,0 5 3 SW - 6 -
08.12.2019 22:00:00 10,1 9,4 13 7 SW 1019,1 5 0,0
08.12.2019 21:00:00 10,0 9,0 8 4 SW - 10 -
08.12.2019 20:00:00 11,0 10,0 4 2 S - 10 -
08.12.2019 19:00:00 11,2 10,0 4 2 - 1020,1 10 -
08.12.2019 18:00:00 12,0 11,0 2 1 - - 10 -
08.12.2019 17:00:00 13,0 11,0 2 1 - - 10 -
08.12.2019 16:00:00 14,8 11,7 9 5 NE 1020,1 10 0,0
08.12.2019 15:00:00 16,0 12,0 9 5 N - 10 -
08.12.2019 14:00:00 16,0 12,0 11 6 N - 10 -
08.12.2019 13:00:00 16,1 12,1 8 4 - 1020,6 10 -
08.12.2019 12:00:00 16,0 12,0 8 4 WNW - 10 -
08.12.2019 11:00:00 16,0 12,0 9 5 WNW - 10 -
08.12.2019 10:00:00 15,0 11,2 9 5 WNW 1021,8 10 0,0
08.12.2019 09:00:00 13,0 10,0 8 4 W - 10 -
08.12.2019 08:00:00 9,0 8,0 16 9 WSW - 10 -
08.12.2019 07:00:00 8,7 7,6 13 7 SW 1020,8 10 -
08.12.2019 06:00:00 10,0 9,0 8 4 SW - 10 -
08.12.2019 05:00:00 10,0 9,0 8 4 W - 10 -
08.12.2019 04:00:00 10,3 9,4 5 3 WSW 1020,1 - 0,0
08.12.2019 03:00:00 11,0 11,0 5 3 - - 10 -
08.12.2019 02:00:00 12,0 11,0 9 5 SW - 10 -
08.12.2019 01:00:00 12,2 11,0 4 2 SW 1020,4 10 -
08.12.2019 00:00:00 12,0 10,0 9 5 WSW - 10 -
07.12.2019 23:00:00 11,0 10,0 9 5 SW - 10 -
07.12.2019 22:00:00 11,1 10,0 11 6 SW 1020,3 10 0,0
07.12.2019 21:00:00 11,0 10,0 11 6 SW - 10 -
07.12.2019 20:00:00 11,0 10,0 11 6 WSW - 10 -
07.12.2019 19:00:00 11,8 10,5 8 4 W 1020,0 10 -
07.12.2019 18:00:00 13,0 10,0 5 3 NW - 10 -
07.12.2019 17:00:00 14,0 11,0 5 3 NNW - 10 -
07.12.2019 16:00:00 15,1 11,0 11 6 NW 1019,3 10 0,0
07.12.2019 15:00:00 16,0 11,0 24 13 WNW - 10 -
07.12.2019 14:00:00 16,0 11,0 22 12 WNW - 10 -
07.12.2019 13:00:00 16,2 11,7 22 12 WNW 1019,4 10 -
07.12.2019 12:00:00 16,0 12,0 21 11 NW - 10 -
07.12.2019 11:00:00 16,0 11,0 24 13 WNW - 10 -
07.12.2019 10:00:00 15,6 12,0 13 7 WNW 1020,5 10 0,0
07.12.2019 09:00:00 14,0 11,0 9 5 W - 10 -
07.12.2019 08:00:00 12,0 10,0 8 4 W - 10 -
07.12.2019 07:00:00 11,3 10,1 11 6 WSW 1019,4 10 -
07.12.2019 06:00:00 11,0 11,0 15 8 SW - 10 -
07.12.2019 05:00:00 11,0 11,0 9 5 WSW - 8 -
07.12.2019 04:00:00 11,5 11,0 15 8 WSW 1019,3 8 0,0
07.12.2019 03:00:00 13,0 12,0 11 6 WSW - 8 -
07.12.2019 02:00:00 14,0 13,0 11 6 W - 5 -
07.12.2019 01:00:00 14,6 13,9 9 5 W 1019,7 8 -
07.12.2019 00:00:00 14,0 14,0 8 4 W - 7 -
06.12.2019 23:00:00 15,0 14,0 5 3 W - 8 -
06.12.2019 22:00:00 15,3 14,0 8 4 WSW 1020,4 8 0,0
06.12.2019 21:00:00 15,0 14,0 16 9 ESE - 8 -
06.12.2019 20:00:00 15,0 15,0 13 7 E - 8 -
06.12.2019 19:00:00 15,6 14,9 8 4 ESE 1021,3 6 -
06.12.2019 18:00:00 16,0 15,0 4 2 - - 6 -
06.12.2019 17:00:00 15,0 15,0 4 2 - - 5 -
06.12.2019 16:00:00 16,1 14,8 8 4 SW 1022,2 6 0,0
06.12.2019 15:00:00 17,0 15,0 5 3 S - 9 -
06.12.2019 14:00:00 17,0 15,0 4 2 SSW - 5 -
06.12.2019 13:00:00 17,0 14,5 8 4 S 1023,1 9 -
06.12.2019 12:00:00 18,0 15,0 9 5 SSE - 10 -
06.12.2019 11:00:00 17,0 15,0 9 5 ESE - 10 -
06.12.2019 10:00:00 16,7 15,0 9 5 ESE 1025,1 10 0,0
06.12.2019 09:00:00 16,0 14,0 13 7 SE - 10 -
06.12.2019 08:00:00 16,0 13,0 15 8 E - 10 -
06.12.2019 07:00:00 15,3 12,8 13 7 E 1024,6 - -
06.12.2019 06:00:00 - - - - - - - -
06.12.2019 05:00:00 - - - - - - - -
06.12.2019 04:00:00 14,9 12,8 15 8 E 1024,5 - 0,0
06.12.2019 03:00:00 - - - - - - - -
06.12.2019 02:00:00 - - - - - - - -
06.12.2019 01:00:00 14,1 12,2 9 5 E 1025,1 - -
06.12.2019 00:00:00 - - - - - - - -
05.12.2019 23:00:00 15,0 12,0 5 3 SE - 10 -
05.12.2019 22:00:00 14,2 11,9 4 2 - 1025,7 10 0,0
05.12.2019 21:00:00 14,0 11,0 5 3 SSE - 10 -
05.12.2019 20:00:00 14,0 11,0 13 7 SE - 10 -
05.12.2019 19:00:00 13,6 11,3 13 7 SSE 1025,0 10 -
05.12.2019 18:00:00 14,0 11,0 13 7 SSE - 10 -
05.12.2019 17:00:00 15,0 10,0 11 6 SE - 10 -
05.12.2019 16:00:00 15,5 10,0 13 7 E 1023,9 10 0,0
05.12.2019 15:00:00 16,0 10,0 11 6 E - 10 -
05.12.2019 14:00:00 16,0 11,0 15 8 E - 10 -
05.12.2019 13:00:00 15,7 10,9 11 6 E 1024,0 10 -
05.12.2019 12:00:00 16,0 11,0 9 5 E - 10 -
05.12.2019 11:00:00 15,0 10,0 4 2 - - 10 -
05.12.2019 10:00:00 13,7 10,6 4 2 - 1024,3 10 0,0
05.12.2019 09:00:00 12,0 9,0 8 4 W - 10 -

tt = temperature
td = dewpoint
ff = wind speed
dd = wind direction
ppp = reduced air pressure
vv = visibility
rr = precipitation

Next stations